マクノート彗星

C/2007 P1 ( McNaught )

English version
Home page
Total 6,336 html files since Dec. 4, 1995
Updated on September 24, 2007

---------------------------------------------------------------------

・ プロフィール

発見日 2007年8月7日
発見光度 18.7等
発見者 R. H. McNaught (Siding Spring Observatory)

・ 軌道要素

T 2007 Mar. 26.439 TT                                   MPC
q   0.63318              (2000.0)            P               Q
                   Peri.   97.689       +0.029624       +0.986938
                   Node   190.879       +0.178246       +0.150666
e   1.0            Incl.  122.963       +0.983540       -0.057032
From 12 observations 2007 Aug. 7-9.

・ 星図

・ 光度変化

        m1 = 13.0 + 5 logΔ + 10.0 log r

---------------------------------------------------------------------

軌道要素はM.P.E.C. 2007-P23に掲載されたものです。
星図はステラナビゲータ Ver.8 (アストロアーツ) で作成したものです。
光度グラフはComet for Windowsで作成したものです。

---------------------------------------------------------------------

Copyright(C) 1995-2008 Seiichi Yoshida (comet@aerith.net). All rights reserved.